星链-30055 (STARLINK-30055 )

导读 | 豆包AI

STARLINK-30055是美国太空探索技术公司SpaceX星链星座中的一员,于2023年2月27日发射升空。星链计划旨在构建全球低轨宽带互联网星座,为全球提供覆盖广泛的高速互联网服务。该卫星采用平板设计、单块太阳翼,以氪为工质的霍尔推进器,具备自主避撞能力,设计使用寿命约5-7年,退役后会再入大气层烧毁。

Basic Information
目录编号:
55699
目录名称:
STARLINK-30055
国际标识:
2023-026E
轨道中心:
EARTH
卫星名称:
星链-30055
卫星全名:
星链-30055 (STARLINK-30055 )
卫星状态:
已陨落 最后检测时间 2024-07-27
发射日期:
2023-02-27 UTC
国别 :
美国 (US)
星等 :
--
Orbit Information
数据来源 国际轨道数据
星历时间: 2024-07-27T17:18:46+0800
轨道信息已过期596天
半长轴: 6579.2km
偏心率: 0.0013378
轨道倾角: 42.990°
近地点辐角 291.629°
升交点赤经 53.047°
平近点角 202.896°
近地点: 192.263km
远地点: 209.867km
周期: 88.515分钟
每日圈数: 16.268338
Detailed Information
固有亮度:
5
最大亮度:
0.4
卫星平台:
Starlink v2.0 mini
覆盖范围:
全球
运营商:
太空探索技术公司
运营商所在国:
美国
制造商(研发单位):
太空探索技术公司
制造商所在国:
美国
使用方式:
暂无
Satellite Introduction
星链(Starlink)计划是由太空探索技术公司(SpaceX)提出的一个巨型低轨卫星互联网星座项目,计划在2019年至2024年间在太空搭建由约1.2万颗卫星组成的“星链”网络,其中1584颗将部署在地球上空550千米处的近地轨道,并从2020年开始工作。该卫星仍在工作。